Content
SEND FEEDBACK

United States of America Flag

GARDENDALE, TEXAS


Home > North America > United States > Texas
Elevation: 3171 feet     Latitude: 32 19N     Longitude: 102 32W

WEATHER
 
SELECT A DAY
Number of Records: 88,506;   Date Range: 4/17/12 - 3/22/16
 
SHARE

PRINT THIS DATA

[ ← Previous Day ]
WEATHER ALMANAC - JULY 3, 2014
[ Next Day → ]
[ °C ]   °F
Weather ElementAverageHighLow
Temperature78.3 °F88.9 °F (1:15 pm)68 °F (4:55 am)
Dewpoint59.6 °F64.8 °F (3:55 am)52.5 °F (12:35 pm)
Humidity55.8 %88 % (8:35 pm)31 % (11:35 am)
Barometer30.18 in30.23 in (7:35 am)30.12 in (9:15 am)
Wind Speed10.2 mph21.9 mph (9:35 pm)
Wind Gust32.2 mph (3:15 pm)
Weather ElementAverage
Visibility10 mi
Wind DirectionESE (104.8 °)

Weather ElementTotal
Precipitation---
Cooling Degree Days13.5 (Base 65)
Growing Degree Days28.5 (Base 50)
Averaged from 71 records on July 3, 2014
WEATHER CONDITIONS BREAKOUT
WIND DIRECTION BREAKOUT
WEATHER BY HOUR - JULY 3, 2014
[ °C ]   °F
Local TimeTemperatureDewpointHumidityBarometerVisibilityWind DirectionWind SpeedGust SpeedPrecipitationEventsConditions
12:15 AM75.9 °F59.4 °F56 %30.18 in10.0 miEast (90°)10.4 mphScattered Clouds
12:35 AM75.6 °F59.5 °F57 %30.18 in10.0 miESE (110°)9.2 mphClear
12:55 AM75.4 °F59.5 °F58 %30.18 in10.0 miEast (80°)5.8 mphClear
1:15 AM74.8 °F59.4 °F58 %30.20 in10.0 miNE (50°)8.1 mphMostly Cloudy
1:35 AM74.5 °F59.5 °F60 %30.20 in10.0 miNE (40°)10.4 mphMostly Cloudy
1:55 AM73.2 °F61.9 °F68 %30.20 in10.0 miNorth (10°)8.1 mphOvercast
2:15 AM71.6 °F62.6 °F73 %30.20 in10.0 miNNE (20°)8.1 mphMostly Cloudy
2:35 AM71.6 °F62.6 °F73 %30.20 in10.0 miNNE (30°)8.1 mphScattered Clouds
2:55 AM70.7 °F63.3 °F77 %30.20 in10.0 miNNE (30°)9.2 mphThunderstormOvercast
3:15 AM70.0 °F63.5 °F80 %30.20 in10.0 miNE (40°)8.1 mphScattered Clouds
3:35 AM69.4 °F63.5 °F81 %30.20 in10.0 miNNE (20°)6.9 mphThunderstormClear
3:55 AM68.9 °F64.8 °F87 %30.19 in10.0 miNNE (20°)6.9 mphClear
4:15 AM68.9 °F64.8 °F87 %30.20 in10.0 miNNE (30°)9.2 mphClear
4:35 AM68.4 °F64.4 °F87 %30.20 in10.0 miNNE (30°)8.1 mphClear
4:55 AM68.2 °F64.0 °F87 %30.19 in10.0 miNNE (30°)6.9 mphClear
5:15 AM68.4 °F64.4 °F87 %30.20 in10.0 miNE (50°)6.9 mphClear
5:35 AM68.2 °F64.0 °F87 %30.20 in10.0 miNE (50°)6.9 mphThunderstormClear
5:55 AM68.2 °F64.4 °F88 %30.20 in10.0 miENE (70°)5.8 mphClear
6:15 AM68.2 °F64.0 °F87 %30.20 in10.0 miENE (70°)4.6 mphClear
6:35 AM68.2 °F63.9 °F86 %30.20 in10.0 miEast (80°)6.9 mphClear
6:55 AM68.0 °F63.5 °F85 %30.20 in10.0 miEast (90°)5.8 mphClear
7:15 AM68.0 °F63.1 °F84 %30.21 in10.0 miEast (90°)4.6 mphClear
7:35 AM68.2 °F63.0 °F83 %30.21 in10.0 miEast (90°)6.9 mphClear
7:55 AM68.9 °F63.3 °F82 %30.21 in10.0 miEast (90°)6.9 mphClear
8:15 AM69.8 °F63.5 °F80 %30.23 in10.0 miEast (80°)6.9 mphClear
8:35 AM71.4 °F63.7 °F76 %30.23 in10.0 miEast (80°)10.4 mphClear
8:55 AM73.6 °F63.7 °F71 %30.23 in10.0 miEast (80°)10.4 mphClear
9:15 AM75.2 °F63.3 °F66 %30.23 in10.0 miESE (110°)9.2 mphClear
9:35 AM76.1 °F62.6 °F63 %30.23 in10.0 miESE (120°)8.1 mphClear
9:55 AM77.0 °F62.1 °F60 %30.23 in10.0 miSE (130°)8.1 mphClear
10:15 AM78.1 °F61.5 °F57 %30.23 in10.0 miSE (130°)9.2 mphClear
10:35 AM79.2 °F61.5 °F55 %30.22 in10.0 miSSE (150°)10.4 mphClear
11:15 AM80.4 °F61.3 °F52 %30.21 in10.0 miSSE (150°)11.5 mphClear
11:35 AM82.9 °F61.3 °F48 %30.21 in10.0 miSE (140°)12.7 mph16.1 mphClear
11:55 AM83.3 °F59.9 °F45 %30.21 in10.0 miSE (140°)6.9 mphScattered Clouds
12:15 PM84.4 °F59.5 °F43 %30.21 in10.0 miSE (140°)9.2 mphScattered Clouds
12:35 PM84.6 °F59.0 °F42 %30.21 in10.0 miSE (130°)6.9 mph21.9 mphScattered Clouds
12:55 PM85.8 °F59.0 °F40 %30.21 in10.0 miSE (130°)8.1 mphScattered Clouds
1:15 PM86.5 °F59.0 °F39 %30.20 in10.0 miSE (130°)11.5 mph18.4 mphScattered Clouds
1:35 PM86.0 °F57.7 °F38 %30.20 in10.0 miSSE (150°)11.5 mph20.7 mphScattered Clouds
1:55 PM86.4 °F57.9 °F38 %30.19 in10.0 miSSE (150°)16.1 mph21.9 mphMostly Cloudy
2:15 PM88.9 °F57.6 °F35 %30.18 in10.0 miESE (110°)12.7 mph20.7 mphScattered Clouds
2:35 PM87.3 °F57.9 °F37 %30.18 in10.0 miESE (120°)18.4 mph24.2 mphScattered Clouds
2:55 PM88.2 °F58.5 °F37 %30.17 in10.0 miESE (120°)15.0 mph20.7 mphScattered Clouds
3:15 PM87.6 °F58.1 °F37 %30.17 in10.0 miSouth (170°)15.0 mph23.0 mphMostly Cloudy
3:35 PM85.1 °F57.0 °F38 %30.17 in10.0 miSSE (150°)18.4 mph23.0 mphScattered Clouds
3:55 PM85.1 °F57.2 °F39 %30.16 in10.0 miSSE (150°)18.4 mph26.5 mphScattered Clouds
4:15 PM86.2 °F57.2 °F37 %30.16 in10.0 miSE (140°)17.3 mph23.0 mphClear
4:35 PM84.9 °F58.1 °F40 %30.16 in10.0 miESE (120°)18.4 mph28.8 mphClear
4:55 PM84.9 °F58.1 °F40 %30.15 in10.0 miESE (110°)16.1 mph26.5 mphClear
5:15 PM83.7 °F56.5 °F39 %30.15 in10.0 miESE (110°)21.9 mph32.2 mphClear
5:35 PM86.0 °F57.9 °F38 %30.14 in10.0 miESE (120°)17.3 mph25.3 mphClear
5:55 PM86.7 °F57.2 °F37 %30.14 in10.0 miSE (140°)17.3 mph27.6 mphClear
6:15 PM85.5 °F56.1 °F37 %30.13 in10.0 miSSE (150°)16.1 mph26.5 mphClear
6:35 PM85.1 °F53.4 °F34 %30.12 in10.0 miSSE (150°)16.1 mph23.0 mphClear
6:55 PM86.2 °F52.7 °F32 %30.12 in10.0 miSE (140°)11.5 mph20.7 mphClear
7:15 PM86.4 °F52.5 °F31 %30.12 in10.0 miSE (140°)15.0 mphClear
7:35 PM86.2 °F53.4 °F32 %30.12 in10.0 miSSE (150°)13.8 mph18.4 mphClear
7:55 PM85.1 °F54.3 °F35 %30.12 in10.0 miSE (130°)10.4 mph20.7 mphClear
8:15 PM84.6 °F55.4 °F37 %30.12 in10.0 miSE (130°)13.8 mph19.6 mphClear
8:35 PM83.3 °F55.4 °F38 %30.12 in10.0 miSE (140°)9.2 mph19.6 mphClear
8:55 PM82.4 °F54.9 °F39 %30.12 in10.0 miSE (130°)10.4 mphClear
9:15 PM82.0 °F54.5 °F39 %30.13 in10.0 miSE (140°)8.1 mphClear
9:35 PM81.5 °F54.5 °F39 %30.14 in10.0 miSE (130°)5.8 mphClear
9:55 PM80.4 °F55.4 °F42 %30.15 in10.0 miESE (110°)5.8 mphClear
10:15 PM79.2 °F57.9 °F48 %30.17 in10.0 miESE (110°)8.1 mphClear
10:35 PM78.3 °F57.7 °F49 %30.18 in10.0 miESE (120°)5.8 mphClear
10:55 PM77.5 °F57.4 °F50 %30.18 in10.0 miSE (130°)5.8 mphClear
11:15 PM76.6 °F57.2 °F51 %30.19 in10.0 miSE (140°)4.6 mphClear
11:35 PM75.7 °F57.2 °F52 %30.20 in10.0 miSE (140°)6.9 mphClear
11:55 PM74.8 °F56.3 °F52 %30.20 in10.0 miSSE (150°)5.8 mphClear
Hourly data recorded from KE11, located miles away from Gardendale, Texas




STORIES FROM OUR PARTNERS